QPF
0.00 0.00 0.00 0.00 0.00 0.00 0.00 0.00 0.00 0.00 0.00 0.00 0.00 0.00 0.00 0.00 0.00 0.00 0.00 0.00 0.00 0.00 0.00 0.00 0.00 0.00 0.00 0.00 0.00 0.00 0.00 0.00 0.00 0.00 0.00 0.00 0.00 0.00 0.00 0.00 0.02 0.01 0.00
0.00 0.00 0.00 0.00 0.00 0.00 0.00 0.00 0.00 0.00 0.00 0.00 0.00 0.00 0.00 0.00 0.00 0.00 0.00 0.00 0.00 0.00 0.00 0.00 0.00 0.00 0.00 0.00 0.00 0.00 0.00 0.00 0.00 0.00 0.00 0.00 0.00 0.00 0.00 0.00 0.02 0.01 0.00
0.00 0.00 0.00 0.00 0.00 0.00 0.00 0.00 0.00 0.00 0.00 0.00 0.00 0.00 0.00 0.00 0.00 0.00 0.00 0.00 0.00 0.00 0.00 0.00 0.00 0.00 0.00 0.00 0.00 0.00 0.00 0.00 0.00 0.00 0.00 0.01 0.00 0.00 0.00 0.00 0.00 0.00 0.00
0.00 0.00 0.00 0.00 0.00 0.00 0.00 0.00 0.00 0.00 0.00 0.00 0.00 0.00 0.00 0.00 0.00 0.00 0.00 0.00 0.00 0.00 0.00 0.00 0.00 0.00 0.00 0.00 0.00 0.00 0.00 0.00 0.00 0.00 0.01 0.03 0.01 0.00 0.00 0.00 0.00 0.00 0.00
0.00 0.00 0.00 0.00 0.00 0.00 0.00 0.00 0.00 0.00 0.00 0.00 0.00 0.00 0.00 0.00 0.00 0.00 0.00 0.00 0.00 0.00 0.00 0.00 0.00 0.00 0.00 0.00 0.00 0.00 0.00 0.00 0.00 0.00 0.00 0.01 0.01 0.01 0.00 0.00 0.00 0.00 0.00
0.00 0.00 0.00 0.00 0.00 0.00 0.00 0.00 0.00 0.00 0.00 0.00 0.00 0.00 0.00 0.00 0.00 0.00 0.00 0.00 0.00 0.00 0.00 0.00 0.00 0.00 0.00 0.00 0.00 0.00 0.00 0.00 0.00 0.00 0.00 0.00 0.02 0.03 0.00 0.01 0.01 0.01 0.01
0.00 0.00 0.00 0.00 0.00 0.00 0.00 0.00 0.00 0.00 0.00 0.00 0.00 0.00 0.00 0.00 0.00 0.00 0.00 0.00 0.00 0.00 0.00 0.00 0.00 0.00 0.00 0.00 0.00 0.00 0.00 0.00 0.00 0.00 0.00 0.00 0.01 0.01 0.01 0.01 0.03 0.04 0.04
0.00 0.00 0.00 0.00 0.00 0.00 0.00 0.00 0.00 0.00 0.00 0.00 0.00 0.00 0.00 0.00 0.00 0.00 0.00 0.00 0.00 0.00 0.00 0.00 0.00 0.00 0.00 0.00 0.00 0.00 0.00 0.00 0.00 0.00 0.00 0.00 0.00 0.00 0.01 0.01 0.01 0.03 0.04
0.00 0.00 0.00 0.00 0.00 0.00 0.00 0.00 0.00 0.00 0.00 0.00 0.00 0.00 0.00 0.00 0.00 0.00 0.00 0.00 0.00 0.00 0.00 0.00 0.00 0.00 0.00 0.00 0.00 0.00 0.00 0.00 0.00 0.00 0.00 0.01 0.01 0.01 0.01 0.01 0.01 0.02 0.03
0.00 0.00 0.00 0.00 0.00 0.00 0.00 0.00 0.00 0.00 0.00 0.00 0.00 0.00 0.00 0.00 0.00 0.00 0.00 0.00 0.00 0.00 0.00 0.00 0.00 0.00 0.00 0.00 0.00 0.00 0.00 0.00 0.00 0.00 0.01 0.01 0.01 0.01 0.01 0.00 0.00 0.01 0.02
0.00 0.00 0.00 0.00 0.00 0.00 0.00 0.00 0.00 0.00 0.00 0.00 0.00 0.00 0.00 0.00 0.00 0.01 0.00 0.00 0.00 0.00 0.00 0.00 0.00 0.01 0.00 0.00 0.01 0.01 0.00 0.00 0.00 0.01 0.01 0.00 0.00 0.01 0.01 0.01 0.01 0.01 0.01
0.00 0.00 0.00 0.00 0.00 0.00 0.00 0.00 0.00 0.00 0.00 0.00 0.01 0.02 0.01 0.01 0.02 0.01 0.00 0.00 0.00 0.00 0.00 0.00 0.01 0.01 0.01 0.04 0.14 0.12 0.01 0.01 0.01 0.01 0.01 0.01 0.00 0.01 0.01 0.01 0.01 0.01 0.01
0.00 0.00 0.00 0.00 0.00 0.00 0.00 0.00 0.00 0.00 0.01 0.01 0.01 0.04 0.06 0.04 0.01 0.00 0.00 0.01 0.01 0.01 0.02 0.04 0.04 0.03 0.07 0.10 0.11 0.10 0.02 0.01 0.01 0.01 0.01 0.01 0.00 0.01 0.01 0.01 0.01 0.01 0.01
0.00 0.00 0.00 0.00 0.00 0.00 0.00 0.00 0.00 0.00 0.00 0.00 0.01 0.01 0.04 0.04 0.02 0.01 0.00 0.01 0.03 0.04 0.03 0.03 0.08 0.05 0.05 0.05 0.04 0.03 0.01 0.01 0.01 0.01 0.02 0.01 0.00 0.00 0.01 0.01 0.00 0.01 0.01
0.00 0.00 0.00 0.00 0.00 0.00 0.00 0.00 0.00 0.00 0.00 0.00 0.01 0.02 0.03 0.03 0.02 0.01 0.01 0.01 0.00 0.01 0.02 0.04 0.02 0.04 0.04 0.02 0.01 0.02 0.01 0.01 0.01 0.01 0.01 0.01 0.00 0.00 0.00 0.01 0.01 0.01 0.01
0.00 0.00 0.00 0.00 0.00 0.00 0.00 0.00 0.00 0.00 0.00 0.00 0.00 0.00 0.01 0.01 0.02 0.02 0.02 0.03 0.01 0.01 0.02 0.05 0.03 0.07 0.03 0.02 0.02 0.01 0.00 0.00 0.00 0.00 0.00 0.01 0.00 0.00 0.00 0.01 0.01 0.01 0.01
0.00 0.00 0.00 0.00 0.00 0.00 0.00 0.00 0.00 0.00 0.00 0.00 0.00 0.00 0.00 0.00 0.01 0.02 0.03 0.03 0.03 0.03 0.04 0.03 0.03 0.05 0.05 0.04 0.03 0.01 0.01 0.00 0.00 0.00 0.00 0.00 0.00 0.00 0.01 0.02 0.02 0.02 0.01
0.00 0.00 0.00 0.00 0.00 0.00 0.00 0.00 0.00 0.00 0.00 0.00 0.00 0.00 0.00 0.01 0.02 0.02 0.03 0.03 0.04 0.03 0.04 0.08 0.06 0.08 0.11 0.07 0.05 0.02 0.01 0.01 0.01 0.01 0.00 0.00 0.00 0.00 0.01 0.02 0.02 0.01 0.01
0.00 0.00 0.00 0.00 0.01 0.02 0.02 0.01 0.00 0.00 0.00 0.01 0.01 0.02 0.02 0.02 0.02 0.04 0.04 0.06 0.06 0.06 0.07 0.06 0.10 0.13 0.15 0.14 0.08 0.04 0.02 0.02 0.02 0.01 0.01 0.00 0.00 0.00 0.00 0.01 0.02 0.01 0.01
0.00 0.00 0.01 0.04 0.05 0.07 0.09 0.08 0.05 0.04 0.02 0.02 0.01 0.02 0.03 0.04 0.06 0.08 0.06 0.08 0.11 0.13 0.13 0.14 0.18 0.17 0.17 0.17 0.09 0.07 0.06 0.04 0.04 0.03 0.03 0.02 0.01 0.00 0.00 0.01 0.03 0.02 0.02
0.00 0.02 0.07 0.15 0.20 0.21 0.21 0.17 0.15 0.13 0.12 0.08 0.05 0.05 0.07 0.09 0.12 0.16 0.13 0.19 0.19 0.20 0.22 0.21 0.23 0.23 0.22 0.23 0.19 0.16 0.10 0.06 0.04 0.03 0.02 0.02 0.01 0.00 0.00 0.00 0.01 0.03 0.04
0.02 0.04 0.11 0.19 0.25 0.25 0.27 0.28 0.28 0.29 0.21 0.14 0.13 0.13 0.12 0.16 0.18 0.19 0.22 0.23 0.25 0.27 0.27 0.27 0.30 0.29 0.29 0.31 0.30 0.29 0.22 0.14 0.09 0.05 0.06 0.05 0.03 0.02 0.01 0.00 0.00 0.01 0.02
0.02 0.05 0.08 0.14 0.21 0.25 0.28 0.29 0.26 0.28 0.18 0.19 0.18 0.20 0.20 0.24 0.25 0.24 0.28 0.27 0.28 0.29 0.27 0.30 0.32 0.33 0.33 0.34 0.33 0.32 0.28 0.23 0.17 0.13 0.14 0.12 0.07 0.03 0.02 0.00 0.00 0.00 0.01
0.01 0.02 0.04 0.08 0.12 0.17 0.22 0.22 0.22 0.22 0.19 0.24 0.31 0.31 0.27 0.25 0.24 0.24 0.26 0.27 0.27 0.29 0.28 0.29 0.30 0.32 0.33 0.35 0.36 0.34 0.32 0.31 0.27 0.18 0.11 0.09 0.07 0.04 0.02 0.01 0.01 0.01 0.01
0.01 0.01 0.01 0.04 0.06 0.11 0.14 0.17 0.20 0.21 0.23 0.27 0.33 0.32 0.28 0.27 0.23 0.20 0.21 0.20 0.21 0.22 0.25 0.28 0.31 0.35 0.36 0.36 0.36 0.36 0.36 0.33 0.28 0.21 0.15 0.11 0.09 0.05 0.04 0.03 0.02 0.02 0.02
0.00 0.00 0.00 0.01 0.04 0.06 0.08 0.11 0.13 0.14 0.17 0.19 0.22 0.26 0.26 0.26 0.22 0.18 0.19 0.21 0.21 0.22 0.25 0.29 0.31 0.35 0.37 0.35 0.35 0.34 0.33 0.31 0.28 0.23 0.18 0.15 0.12 0.05 0.02 0.02 0.02 0.02 0.02
MSLP
1008.61 1008.76 1009.11 1009.65 1010.31 1010.99 1011.61 1012.09 1012.43 1012.63 1012.76 1012.88 1013.05 1013.28 1013.59 1013.93 1014.27 1014.56 1014.77 1014.89 1014.95 1014.97 1014.98 1015.02 1015.09 1015.20 1015.31 1015.42 1015.50 1015.55 1015.57 1015.59 1015.63 1015.69 1015.78 1015.91 1016.05 1016.20 1016.34 1016.45 1016.53 1016.60 1016.65
1008.47 1008.77 1009.28 1009.94 1010.68 1011.39 1011.97 1012.39 1012.64 1012.75 1012.81 1012.89 1013.05 1013.32 1013.68 1014.10 1014.50 1014.83 1015.06 1015.19 1015.22 1015.22 1015.21 1015.23 1015.30 1015.40 1015.52 1015.63 1015.71 1015.74 1015.74 1015.73 1015.72 1015.75 1015.82 1015.94 1016.09 1016.25 1016.41 1016.55 1016.67 1016.76 1016.83
1008.34 1008.78 1009.42 1010.20 1011.01 1011.74 1012.31 1012.67 1012.85 1012.89 1012.89 1012.94 1013.09 1013.38 1013.77 1014.21 1014.64 1014.99 1015.22 1015.33 1015.36 1015.34 1015.33 1015.35 1015.43 1015.55 1015.69 1015.80 1015.87 1015.88 1015.83 1015.77 1015.71 1015.69 1015.73 1015.83 1015.97 1016.15 1016.34 1016.52 1016.67 1016.81 1016.93
1008.17 1008.74 1009.50 1010.37 1011.24 1012.00 1012.56 1012.90 1013.04 1013.04 1013.01 1013.04 1013.18 1013.47 1013.86 1014.30 1014.71 1015.05 1015.26 1015.35 1015.36 1015.35 1015.35 1015.40 1015.51 1015.66 1015.82 1015.94 1015.99 1015.97 1015.88 1015.76 1015.64 1015.57 1015.56 1015.63 1015.77 1015.95 1016.16 1016.37 1016.58 1016.77 1016.94
1007.99 1008.65 1009.49 1010.43 1011.35 1012.13 1012.71 1013.05 1013.18 1013.18 1013.14 1013.17 1013.31 1013.59 1013.96 1014.37 1014.75 1015.04 1015.21 1015.28 1015.28 1015.28 1015.31 1015.40 1015.56 1015.75 1015.94 1016.07 1016.11 1016.06 1015.92 1015.75 1015.57 1015.44 1015.38 1015.42 1015.53 1015.71 1015.93 1016.17 1016.41 1016.65 1016.87
1007.80 1008.51 1009.40 1010.38 1011.33 1012.14 1012.73 1013.09 1013.24 1013.27 1013.26 1013.31 1013.46 1013.73 1014.07 1014.43 1014.75 1014.99 1015.11 1015.16 1015.16 1015.17 1015.24 1015.38 1015.59 1015.83 1016.05 1016.19 1016.22 1016.14 1015.97 1015.74 1015.51 1015.34 1015.24 1015.24 1015.33 1015.50 1015.71 1015.95 1016.21 1016.47 1016.73
1007.66 1008.38 1009.28 1010.26 1011.21 1012.02 1012.63 1013.02 1013.21 1013.29 1013.33 1013.42 1013.59 1013.85 1014.17 1014.48 1014.75 1014.92 1015.00 1015.01 1015.01 1015.04 1015.15 1015.34 1015.60 1015.88 1016.12 1016.27 1016.30 1016.20 1015.99 1015.73 1015.47 1015.26 1015.14 1015.12 1015.19 1015.33 1015.53 1015.75 1016.00 1016.25 1016.52
1007.62 1008.31 1009.17 1010.12 1011.03 1011.82 1012.43 1012.84 1013.08 1013.22 1013.32 1013.46 1013.66 1013.93 1014.22 1014.49 1014.71 1014.83 1014.87 1014.86 1014.85 1014.90 1015.04 1015.27 1015.56 1015.86 1016.12 1016.26 1016.28 1016.16 1015.94 1015.66 1015.38 1015.17 1015.04 1015.01 1015.08 1015.20 1015.38 1015.57 1015.78 1016.00 1016.23
1007.69 1008.32 1009.12 1009.99 1010.83 1011.57 1012.16 1012.57 1012.84 1013.03 1013.19 1013.38 1013.62 1013.90 1014.19 1014.43 1014.61 1014.69 1014.70 1014.68 1014.67 1014.73 1014.89 1015.13 1015.43 1015.74 1015.98 1016.11 1016.11 1015.97 1015.74 1015.46 1015.19 1014.99 1014.88 1014.87 1014.95 1015.07 1015.23 1015.39 1015.55 1015.71 1015.88
1007.83 1008.40 1009.11 1009.88 1010.63 1011.29 1011.82 1012.22 1012.50 1012.72 1012.93 1013.16 1013.44 1013.74 1014.02 1014.26 1014.42 1014.48 1014.48 1014.45 1014.44 1014.51 1014.66 1014.90 1015.19 1015.47 1015.68 1015.78 1015.75 1015.59 1015.35 1015.08 1014.84 1014.67 1014.60 1014.63 1014.73 1014.88 1015.03 1015.17 1015.28 1015.38 1015.49
1007.99 1008.49 1009.10 1009.77 1010.41 1010.98 1011.44 1011.79 1012.06 1012.29 1012.52 1012.79 1013.09 1013.41 1013.71 1013.94 1014.10 1014.17 1014.16 1014.14 1014.14 1014.20 1014.35 1014.56 1014.81 1015.05 1015.22 1015.27 1015.20 1015.02 1014.77 1014.51 1014.30 1014.18 1014.16 1014.24 1014.39 1014.57 1014.74 1014.88 1014.97 1015.03 1015.07
1008.06 1008.50 1009.04 1009.60 1010.14 1010.61 1011.00 1011.29 1011.54 1011.75 1011.99 1012.27 1012.59 1012.91 1013.22 1013.47 1013.64 1013.72 1013.74 1013.73 1013.74 1013.80 1013.93 1014.12 1014.33 1014.51 1014.62 1014.63 1014.52 1014.31 1014.06 1013.80 1013.61 1013.53 1013.56 1013.69 1013.89 1014.12 1014.34 1014.50 1014.60 1014.64 1014.65
1007.95 1008.37 1008.84 1009.33 1009.79 1010.18 1010.50 1010.74 1010.95 1011.15 1011.37 1011.64 1011.95 1012.28 1012.59 1012.85 1013.04 1013.16 1013.21 1013.23 1013.26 1013.32 1013.44 1013.60 1013.76 1013.90 1013.96 1013.92 1013.78 1013.55 1013.28 1013.03 1012.85 1012.79 1012.85 1013.02 1013.27 1013.55 1013.82 1014.03 1014.16 1014.22 1014.22
1007.65 1008.05 1008.49 1008.93 1009.34 1009.69 1009.96 1010.17 1010.34 1010.50 1010.70 1010.94 1011.23 1011.54 1011.85 1012.12 1012.33 1012.48 1012.57 1012.63 1012.69 1012.77 1012.89 1013.03 1013.18 1013.28 1013.31 1013.25 1013.08 1012.84 1012.57 1012.31 1012.12 1012.06 1012.12 1012.30 1012.57 1012.89 1013.20 1013.46 1013.65 1013.75 1013.79
1007.16 1007.56 1007.99 1008.43 1008.82 1009.15 1009.41 1009.60 1009.75 1009.88 1010.04 1010.24 1010.48 1010.76 1011.05 1011.32 1011.55 1011.73 1011.87 1011.98 1012.08 1012.19 1012.33 1012.47 1012.61 1012.71 1012.74 1012.67 1012.51 1012.27 1011.99 1011.73 1011.52 1011.42 1011.45 1011.60 1011.86 1012.18 1012.52 1012.83 1013.07 1013.24 1013.34
1006.59 1006.99 1007.44 1007.88 1008.29 1008.64 1008.91 1009.10 1009.24 1009.35 1009.46 1009.60 1009.79 1010.01 1010.26 1010.52 1010.76 1010.97 1011.15 1011.31 1011.47 1011.62 1011.79 1011.96 1012.12 1012.23 1012.28 1012.25 1012.11 1011.90 1011.63 1011.36 1011.12 1010.96 1010.92 1011.01 1011.21 1011.49 1011.82 1012.15 1012.44 1012.67 1012.83
1006.09 1006.49 1006.93 1007.39 1007.83 1008.21 1008.51 1008.72 1008.86 1008.95 1009.01 1009.09 1009.20 1009.35 1009.54 1009.77 1010.01 1010.24 1010.47 1010.68 1010.89 1011.09 1011.30 1011.51 1011.70 1011.86 1011.96 1011.98 1011.90 1011.73 1011.49 1011.21 1010.93 1010.71 1010.58 1010.56 1010.66 1010.86 1011.13 1011.45 1011.76 1012.04 1012.26
1005.81 1006.18 1006.61 1007.07 1007.53 1007.94 1008.27 1008.50 1008.64 1008.70 1008.71 1008.71 1008.74 1008.81 1008.93 1009.12 1009.34 1009.59 1009.85 1010.11 1010.37 1010.63 1010.88 1011.14 1011.38 1011.59 1011.75 1011.83 1011.82 1011.71 1011.51 1011.24 1010.93 1010.64 1010.41 1010.26 1010.23 1010.32 1010.50 1010.77 1011.06 1011.36 1011.63
1005.85 1006.15 1006.53 1006.97 1007.43 1007.85 1008.20 1008.44 1008.57 1008.60 1008.56 1008.48 1008.41 1008.39 1008.45 1008.58 1008.78 1009.03 1009.32 1009.62 1009.93 1010.23 1010.54 1010.83 1011.12 1011.38 1011.60 1011.76 1011.82 1011.78 1011.63 1011.38 1011.05 1010.70 1010.37 1010.10 1009.93 1009.88 1009.96 1010.13 1010.38 1010.67 1010.95
1006.22 1006.43 1006.74 1007.12 1007.53 1007.94 1008.28 1008.52 1008.63 1008.62 1008.52 1008.36 1008.20 1008.09 1008.07 1008.14 1008.31 1008.56 1008.87 1009.20 1009.55 1009.90 1010.24 1010.57 1010.90 1011.21 1011.48 1011.70 1011.84 1011.86 1011.77 1011.55 1011.23 1010.83 1010.42 1010.05 1009.75 1009.57 1009.51 1009.58 1009.76 1010.01 1010.28
1006.85 1006.96 1007.16 1007.45 1007.79 1008.15 1008.46 1008.67 1008.75 1008.70 1008.54 1008.30 1008.06 1007.87 1007.76 1007.77 1007.90 1008.14 1008.46 1008.82 1009.19 1009.58 1009.95 1010.32 1010.67 1011.02 1011.34 1011.61 1011.81 1011.90 1011.86 1011.68 1011.38 1010.97 1010.51 1010.05 1009.66 1009.36 1009.19 1009.16 1009.25 1009.44 1009.69
1007.62 1007.60 1007.68 1007.86 1008.11 1008.40 1008.65 1008.83 1008.87 1008.78 1008.56 1008.26 1007.94 1007.66 1007.48 1007.43 1007.51 1007.73 1008.04 1008.41 1008.81 1009.22 1009.63 1010.02 1010.41 1010.78 1011.14 1011.45 1011.70 1011.84 1011.86 1011.73 1011.46 1011.06 1010.59 1010.10 1009.63 1009.25 1009.00 1008.88 1008.89 1009.02 1009.23
1008.33 1008.21 1008.17 1008.24 1008.39 1008.60 1008.80 1008.92 1008.93 1008.80 1008.54 1008.18 1007.80 1007.44 1007.19 1007.06 1007.09 1007.26 1007.55 1007.92 1008.34 1008.77 1009.21 1009.63 1010.05 1010.46 1010.85 1011.21 1011.50 1011.69 1011.76 1011.68 1011.46 1011.09 1010.64 1010.14 1009.66 1009.24 1008.93 1008.75 1008.70 1008.77 1008.93
1008.85 1008.65 1008.52 1008.48 1008.55 1008.68 1008.82 1008.91 1008.90 1008.74 1008.45 1008.05 1007.61 1007.19 1006.85 1006.64 1006.59 1006.70 1006.95 1007.30 1007.72 1008.18 1008.65 1009.11 1009.58 1010.03 1010.47 1010.86 1011.20 1011.44 1011.55 1011.53 1011.36 1011.05 1010.64 1010.17 1009.71 1009.30 1008.97 1008.76 1008.67 1008.69 1008.80
1009.09 1008.84 1008.65 1008.55 1008.55 1008.63 1008.74 1008.80 1008.77 1008.61 1008.31 1007.88 1007.39 1006.90 1006.47 1006.17 1006.02 1006.05 1006.23 1006.54 1006.95 1007.42 1007.92 1008.44 1008.97 1009.48 1009.98 1010.43 1010.81 1011.10 1011.27 1011.29 1011.18 1010.93 1010.58 1010.17 1009.76 1009.38 1009.08 1008.86 1008.76 1008.74 1008.80
1009.06 1008.80 1008.58 1008.45 1008.42 1008.47 1008.56 1008.62 1008.60 1008.45 1008.14 1007.71 1007.18 1006.62 1006.10 1005.69 1005.43 1005.34 1005.43 1005.67 1006.05 1006.52 1007.06 1007.64 1008.23 1008.83 1009.40 1009.92 1010.36 1010.70 1010.92 1011.00 1010.94 1010.75 1010.47 1010.13 1009.78 1009.46 1009.20 1009.01 1008.90 1008.86 1008.88
Thickness
5858 5850 5841 5836 5831 5828 5824 5821 5817 5814 5810 5806 5803 5799 5796 5793 5791 5788 5786 5783 5781 5778 5776 5774 5772 5770 5768 5767 5765 5763 5762 5761 5759 5758 5756 5755 5753 5752 5751 5750 5749 5749 5748
5861 5850 5842 5837 5832 5828 5824 5821 5818 5814 5810 5807 5803 5799 5796 5793 5791 5788 5785 5783 5781 5778 5776 5774 5772 5770 5768 5766 5764 5763 5761 5760 5759 5757 5756 5755 5754 5752 5751 5750 5750 5749 5747
5860 5849 5842 5837 5832 5828 5824 5821 5817 5814 5811 5807 5803 5800 5797 5793 5791 5788 5785 5783 5781 5778 5776 5773 5771 5769 5767 5765 5764 5762 5761 5760 5759 5758 5757 5757 5755 5754 5752 5750 5749 5748 5747
5859 5849 5843 5836 5831 5827 5823 5820 5817 5814 5811 5807 5804 5800 5797 5794 5791 5788 5785 5783 5781 5778 5776 5774 5771 5769 5767 5765 5764 5762 5761 5760 5759 5759 5759 5759 5758 5755 5753 5751 5749 5748 5747
5858 5850 5842 5836 5831 5827 5823 5820 5817 5814 5811 5807 5804 5801 5798 5794 5791 5788 5786 5783 5781 5779 5776 5774 5772 5769 5767 5765 5763 5762 5761 5760 5760 5760 5762 5763 5761 5757 5754 5752 5750 5748 5747
5859 5850 5840 5835 5830 5826 5822 5819 5816 5813 5810 5807 5804 5801 5798 5795 5792 5789 5786 5784 5781 5779 5777 5775 5773 5770 5768 5766 5764 5762 5761 5761 5760 5762 5764 5765 5763 5760 5757 5754 5751 5749 5747
5862 5850 5840 5834 5830 5825 5822 5818 5815 5813 5810 5807 5804 5801 5798 5795 5792 5790 5787 5784 5782 5780 5777 5775 5773 5771 5769 5767 5765 5763 5762 5761 5761 5763 5766 5767 5765 5761 5758 5756 5753 5750 5749
5865 5851 5840 5834 5829 5825 5821 5818 5815 5812 5809 5807 5804 5801 5798 5795 5793 5790 5787 5785 5782 5780 5778 5776 5774 5772 5770 5768 5766 5764 5763 5762 5764 5766 5768 5769 5767 5763 5760 5758 5755 5752 5750
5868 5853 5841 5835 5829 5825 5821 5818 5814 5812 5809 5806 5803 5800 5797 5795 5792 5790 5788 5785 5783 5780 5778 5776 5774 5773 5771 5770 5768 5766 5764 5763 5763 5765 5769 5771 5768 5765 5762 5760 5757 5755 5753
5866 5855 5844 5838 5831 5826 5821 5817 5814 5811 5808 5805 5803 5800 5797 5795 5792 5790 5788 5785 5783 5781 5779 5777 5775 5774 5772 5771 5769 5768 5766 5765 5765 5767 5770 5771 5769 5766 5763 5761 5759 5757 5755
5861 5855 5848 5842 5834 5829 5825 5820 5814 5811 5808 5805 5802 5800 5797 5796 5794 5792 5790 5788 5785 5782 5780 5778 5777 5775 5774 5773 5771 5770 5768 5768 5770 5772 5774 5773 5770 5767 5764 5762 5760 5758 5757
5853 5853 5851 5847 5839 5834 5831 5824 5817 5813 5810 5806 5805 5802 5798 5798 5798 5797 5795 5791 5787 5784 5781 5780 5778 5776 5775 5775 5776 5774 5772 5773 5774 5777 5778 5775 5772 5768 5765 5763 5761 5759 5758
5853 5852 5851 5850 5843 5839 5835 5828 5822 5819 5816 5810 5807 5805 5802 5800 5800 5800 5798 5792 5788 5785 5782 5782 5779 5777 5778 5778 5779 5778 5776 5778 5780 5780 5779 5776 5773 5770 5767 5764 5762 5760 5759
5853 5850 5850 5848 5843 5839 5837 5833 5828 5824 5821 5817 5811 5808 5804 5801 5802 5802 5800 5796 5791 5788 5786 5785 5783 5782 5781 5781 5781 5780 5780 5779 5780 5781 5780 5777 5774 5771 5769 5766 5764 5761 5760
5853 5850 5848 5845 5841 5836 5833 5831 5829 5825 5824 5820 5817 5811 5807 5803 5800 5800 5799 5797 5794 5791 5789 5786 5785 5784 5782 5782 5781 5781 5781 5781 5780 5780 5780 5777 5775 5773 5770 5768 5766 5763 5761
5852 5849 5847 5842 5838 5833 5827 5824 5824 5824 5821 5819 5817 5813 5808 5804 5801 5798 5796 5793 5791 5789 5788 5786 5784 5781 5779 5779 5779 5779 5779 5778 5779 5779 5779 5778 5776 5773 5771 5770 5767 5765 5763
5851 5849 5844 5839 5835 5828 5822 5819 5818 5817 5817 5816 5814 5812 5808 5804 5800 5796 5793 5790 5788 5786 5784 5782 5780 5778 5776 5775 5774 5774 5775 5775 5776 5777 5777 5776 5775 5773 5772 5770 5768 5766 5763
5848 5844 5841 5837 5831 5824 5818 5814 5813 5813 5812 5812 5811 5809 5806 5802 5798 5793 5790 5787 5786 5784 5782 5778 5775 5771 5769 5768 5767 5768 5770 5772 5773 5774 5774 5773 5774 5774 5772 5770 5767 5765 5763
5842 5837 5833 5830 5825 5819 5813 5809 5806 5807 5807 5807 5806 5804 5802 5799 5794 5789 5786 5784 5781 5779 5776 5774 5770 5766 5762 5761 5760 5761 5763 5765 5767 5770 5770 5770 5771 5771 5771 5770 5767 5764 5762
5832 5829 5825 5820 5815 5811 5807 5802 5799 5798 5799 5800 5799 5797 5796 5793 5790 5786 5782 5778 5775 5771 5769 5766 5761 5759 5756 5753 5753 5754 5755 5758 5762 5764 5765 5766 5767 5768 5768 5767 5765 5762 5760
5816 5814 5811 5806 5803 5798 5794 5790 5788 5787 5788 5790 5792 5792 5790 5787 5784 5780 5775 5772 5768 5763 5761 5759 5754 5750 5747 5745 5740 5740 5745 5751 5755 5758 5760 5760 5762 5764 5764 5762 5761 5759 5758
5797 5796 5795 5791 5789 5787 5785 5783 5782 5781 5781 5783 5783 5784 5784 5781 5778 5773 5768 5765 5762 5757 5754 5752 5748 5743 5740 5738 5731 5726 5726 5733 5743 5752 5754 5754 5755 5757 5757 5758 5756 5755 5754
5783 5782 5782 5779 5778 5777 5776 5775 5773 5772 5772 5773 5774 5773 5774 5773 5771 5768 5763 5760 5758 5753 5748 5746 5743 5738 5733 5733 5730 5723 5717 5717 5724 5736 5743 5745 5747 5748 5750 5752 5752 5752 5750
5772 5773 5772 5770 5768 5767 5766 5764 5761 5759 5758 5763 5765 5765 5765 5765 5764 5762 5758 5755 5752 5749 5746 5743 5740 5736 5730 5725 5723 5723 5721 5718 5712 5716 5727 5735 5739 5741 5743 5745 5745 5746 5746
5763 5763 5762 5760 5758 5757 5756 5754 5752 5752 5753 5756 5757 5756 5756 5756 5756 5755 5753 5750 5747 5744 5742 5739 5735 5732 5728 5723 5719 5716 5714 5712 5711 5706 5709 5719 5727 5733 5737 5738 5738 5739 5739
5756 5754 5752 5750 5747 5747 5746 5745 5743 5742 5742 5743 5745 5746 5747 5748 5749 5748 5747 5744 5742 5739 5737 5735 5731 5727 5724 5720 5717 5713 5710 5707 5705 5705 5703 5707 5712 5721 5730 5733 5733 5732 5733